TimeEDT,TemperatureF,Dew PointF,Humidity,Sea Level PressureIn,VisibilityMPH,Wind Direction,Wind SpeedMPH,Gust SpeedMPH,PrecipitationIn,Events,Conditions,WindDirDegrees,DateUTC
12:52 AM,70.0,69.1,97,30.12,10.0,Calm,Calm,-,N/A,,Overcast,0,2012-10-04 04:52:00
1:52 AM,70.0,68.0,93,30.12,8.0,Calm,Calm,-,0.00,,Overcast,0,2012-10-04 05:52:00
2:52 AM,69.1,69.1,100,30.12,6.0,Calm,Calm,-,N/A,,Overcast,0,2012-10-04 06:52:00
3:52 AM,69.1,68.0,96,30.12,6.0,Calm,Calm,-,N/A,,Overcast,0,2012-10-04 07:52:00
4:52 AM,68.0,66.9,96,30.11,6.0,East,3.5,-,N/A,,Overcast,80,2012-10-04 08:52:00
5:52 AM,69.1,68.0,96,30.12,7.0,Calm,Calm,-,0.01,Rain,Light Rain,0,2012-10-04 09:52:00
6:52 AM,68.0,68.0,100,30.11,6.0,SE,3.5,-,0.00,,Overcast,130,2012-10-04 10:52:00
7:52 AM,69.1,68.0,96,30.12,4.0,ESE,3.5,-,N/A,,Overcast,110,2012-10-04 11:52:00
8:28 AM,69.8,68.0,94,30.14,6.0,NW,6.9,-,N/A,,Overcast,310,2012-10-04 12:28:00
8:52 AM,70.0,68.0,93,30.12,4.0,North,3.5,-,N/A,,Overcast,350,2012-10-04 12:52:00
9:52 AM,71.1,69.1,93,30.15,5.0,Calm,Calm,-,0.00,,Mostly Cloudy,0,2012-10-04 13:52:00
10:52 AM,73.9,69.1,85,30.14,10.0,West,3.5,-,N/A,,Mostly Cloudy,280,2012-10-04 14:52:00
11:52 AM,77.0,66.9,71,30.14,10.0,WNW,10.4,-,N/A,,Mostly Cloudy,290,2012-10-04 15:52:00
12:52 PM,77.0,64.9,66,30.13,10.0,NNW,10.4,-,N/A,,Overcast,340,2012-10-04 16:52:00
1:52 PM,78.1,63.0,60,30.12,10.0,NW,12.7,-,N/A,,Mostly Cloudy,320,2012-10-04 17:52:00
2:52 PM,77.0,61.0,58,30.10,10.0,NW,13.8,-,N/A,,Mostly Cloudy,320,2012-10-04 18:52:00
3:52 PM,77.0,60.1,56,30.11,10.0,NW,9.2,18.4,N/A,,Mostly Cloudy,320,2012-10-04 19:52:00
4:52 PM,79.0,59.0,50,30.10,10.0,WNW,9.2,-,N/A,,Mostly Cloudy,300,2012-10-04 20:52:00
5:52 PM,78.1,55.0,45,30.11,10.0,NW,9.2,-,N/A,,Scattered Clouds,310,2012-10-04 21:52:00
6:52 PM,72.0,57.0,59,30.11,10.0,Calm,Calm,-,N/A,,Scattered Clouds,0,2012-10-04 22:52:00
7:52 PM,70.0,55.9,61,30.12,10.0,WNW,5.8,-,N/A,,Clear,290,2012-10-04 23:52:00
8:52 PM,64.4,55.4,73,30.13,10.0,Calm,Calm,-,N/A,,Clear,0,2012-10-05 00:52:00
9:52 PM,62.1,55.0,78,30.14,10.0,Calm,Calm,-,N/A,,Clear,0,2012-10-05 01:52:00
10:52 PM,62.6,55.4,77,30.15,10.0,WNW,3.5,-,N/A,,Clear,290,2012-10-05 02:52:00
11:52 PM,63.0,54.0,72,30.14,10.0,WNW,4.6,-,N/A,,Clear,290,2012-10-05 03:52:00